Location: Bastogne Gables
(35.1554°N, 78.9900°W)
Time: 02:38:39
(UTC+00:00)

OAO 1 Rocket - Pass Details

Date: 29 October 2020
Orbit: 744 x 755 km, 35.0° (Epoch: 26 November)

Event Time Altitude Azimuth Distance (km) Brightness Sun altitude
Rises 23:43:56 0° 271° (W) 3,193 9.5 -16.9°
Reaches altitude 10° 23:46:23 10° 271° (W) 2,267 8.2 -17.4°
Maximum altitude 23:51:45 90° 151° (SSE) 753 4.4 -18.5°
Enters shadow 23:53:58 36° 92° (E) 1,164 4.9 -18.9°
